Location: Blue Moon Observatory
(43.0710°N, 82.8810°W)
Time: 00:13:27
(UTC-05:00)

N. Korean satellite - Visible Passes

Search period start: 20 January 2018 00:00
Search period end: 30 January 2018 00:00
Orbit: 459 x 515 km, 97.2° (Epoch: 19 January)

Date Brightness Start Highest point End Pass type
(mag) Time Alt. Az. Time Alt. Az. Time Alt. Az.
20 Jan 8.4 06:48:50 10° NNE 06:51:59 33° E 06:55:08 10° SSE visible
20 Jan 8.5 18:59:10 10° SSW 19:02:25 32° W 19:05:39 10° NNW visible
21 Jan 9.7 06:25:51 10° NE 06:28:11 17° E 06:30:32 10° SE visible
21 Jan 7.0 18:35:08 10° S 18:38:42 66° WSW 18:42:14 10° NNW visible
22 Jan 6.5 18:11:32 10° SSE 18:15:03 59° ENE 18:18:33 10° N visible
23 Jan 6.8 07:11:04 10° NNE 07:14:31 69° E 07:17:57 10° S visible
23 Jan 9.7 19:22:38 10° SW 19:25:01 17° W 19:27:25 10° NW visible
24 Jan 8.5 06:47:38 10° NNE 06:50:47 32° E 06:53:56 10° SSE visible
24 Jan 8.5 18:58:00 10° SSW 19:01:14 32° W 19:04:27 10° NNW visible
25 Jan 9.8 06:24:40 10° NE 06:26:59 17° E 06:29:18 10° SE visible
25 Jan 6.9 18:33:58 10° S 18:37:30 68° W 18:41:01 10° NNW visible
26 Jan 6.6 18:10:23 10° SSE 18:13:51 57° ENE 18:17:18 10° N visible
27 Jan 6.9 07:09:50 10° NNE 07:13:17 67° E 07:16:45 10° S visible
27 Jan 9.7 19:21:25 10° SW 19:23:48 17° W 19:26:11 10° NW visible
28 Jan 8.6 06:46:24 10° NNE 06:49:33 32° E 06:52:42 10° SSE visible
28 Jan 8.5 18:56:47 10° SSW 19:00:00 33° W 19:03:12 10° NNW visible
29 Jan 9.8 06:23:26 10° NE 06:25:45 17° E 06:28:02 10° SE visible
29 Jan 6.8 18:32:45 10° S 18:36:16 69° WSW 18:39:45 10° NNW visible
